Location: Pinon Hills
(34.4429°N, 117.6403°W)
Time: 05:50:24
(UTC-08:00)

Daily predictions for brighter satellites

Satellite Brightness Start Highest point End
(mag) Time Altitude Azimuth Time Altitude Azimuth Time Altitude Azimuth
Lacrosse 5 4.3 04:10:49 12° NNE 04:10:49 12° NNE 04:11:15 10° NNE
H-2A ROCKET BODY 4.2 04:15:26 31° SSW 04:17:42 35° S 04:40:27 10° SE
Cosmos 1610 Rocket 4.4 04:13:45 10° S 04:19:55 81° E 04:26:12 10° N
Sakura Rocket 4.4 04:20:40 51° SSW 04:21:36 55° S 04:29:49 10° E
Feng Yun 1-1 Rocket 4.2 04:16:42 10° NNE 04:24:04 43° S 04:27:38 10° S
BREEZE-M DEB (TANK) 3.7 04:35:04 64° NNW 04:35:04 64° NNW 04:45:31 10° NE
Cosmos 2056 Rocket 3.7 04:37:43 55° SSW 04:37:43 55° SSW 04:41:49 10° S
USA 215 3.6 04:30:46 10° NE 04:37:13 62° SE 04:43:38 10° SSW
Thor Agena Rocket 3.6 04:36:03 10° S 04:40:18 58° SSW 04:40:18 58° SSW
Meteor 2-13 Rocket 4.4 04:35:49 10° S 04:41:58 86° E 04:48:09 10° N
CRYOSAT 2 4.5 04:38:02 10° SSE 04:42:54 75° E 04:46:11 21° N
Ariane Rocket 4.5 04:39:55 10° NNE 04:44:35 36° E 04:49:14 10° SSE
Meteor 1-19 Rocket 4.3 04:42:53 14° N 04:47:53 77° E 04:53:36 10° SSE
Cosmos 1624 Rocket 4.5 04:50:24 43° SW 04:50:24 43° SW 04:54:37 10° S
Nadezhda 3 Rocket 3.9 04:51:17 10° N 04:57:41 87° W 05:04:02 10° S
Cosmos 2369 Rocket 2.1 04:55:40 29° NNW 04:58:45 89° WSW 05:04:25 10° SSE
Lacrosse 4 Rocket 3.7 04:56:05 10° N 04:59:09 20° ENE 05:02:10 10° ESE
Meteor 1-11 Rocket 3.7 04:53:59 10° SSW 04:59:44 62° W 05:05:24 10° N
Cosmos 1025 Rocket 3.5 04:57:49 13° N 05:01:40 62° E 05:05:56 10° SSE
Cosmos 962 Rocket 4.4 04:59:40 10° S 05:05:51 78° W 05:12:08 10° N
Meteor 2-4 Rocket 3.7 05:03:32 10° N 05:09:10 84° E 05:14:56 10° S
Meteor 1-23 Rocket 4.4 05:03:49 10° N 05:09:23 71° E 05:14:55 10° SSE
Meteor 1-13 Rocket 4.4 05:08:19 20° NNW 05:12:18 52° W 05:17:58 10° SSW
Meteor 1-5 Rocket 4.1 05:07:56 10° S 05:13:16 79° E 05:18:35 10° N
NOSS 3-1 (C) 3.8 05:14:14 10° SSW 05:19:50 62° ESE 05:25:59 10° NE
Atlas Centaur 2 4.2 05:12:20 10° SW 05:20:01 38° SSE 05:26:57 10° E
Cosmos 1943 3.9 05:21:04 29° WNW 05:21:44 29° WNW 05:26:38 10° N
Tiangong 2 1.2 05:24:07 44° NNW 05:24:52 62° NNE 05:27:58 10° ESE
Cosmos 1943 Rocket 2.4 05:19:31 10° NNW 05:25:01 68° ENE 05:30:29 10° SSE
Cosmos 1452 Rocket 3.5 05:21:46 18° NNW 05:25:39 60° WSW 05:30:50 10° S
Cosmos 2341 Rocket 4.1 05:21:26 10° SSW 05:27:30 51° W 05:33:34 10° N
CSL-04 DEB 4.3 05:25:40 10° N 05:29:48 74° WNW 05:34:01 10° SSW
Cosmos 1544 Rocket 3.5 05:26:03 10° S 05:30:24 90° ESE 05:34:49 10° N
Cosmos 158 Rocket 4.1 05:26:38 10° SSW 05:31:55 82° ESE 05:37:18 10° NNE
COSMO-SKYMED 1 2.9 05:34:34 10° S 05:38:43 45° W 05:42:54 10° NNW
Cosmos 1461 2.9 05:34:39 10° SW 05:38:57 59° WNW 05:43:06 10° NNE
Cosmos 1536 4.0 05:36:18 10° SW 05:44:06 - NNW 05:39:00 22° W
IDEFIX/ARIANE 42P 4.1 05:34:53 10° NNE 05:39:45 39° E 05:44:36 10° SSE
SL-24 R/B 4.4 05:42:09 10° N 05:46:56 52° WNW 05:51:09 10° SSW
Cosmos 1500 4.1 05:43:28 10° S 05:47:06 50° E 05:50:45 10° NNE
ASTRO E2 3.2 05:45:17 15° WSW 05:48:24 54° S 05:52:20 10° ESE
CZ-3 R/B 2.2 05:37:59 10° WSW 05:49:24 46° S 05:53:05 10° ESE
Okean 2 3.5 05:45:21 10° NNW 05:49:26 55° W 05:53:28 10° S
CZ-2C R/B 3.4 05:45:21 10° NNE 05:50:20 52° E 05:55:08 10° S
PAYLOAD A 4.3 05:45:35 10° NNE 05:51:03 83° ESE 05:56:28 10° S
BREEZE M DEB (TANK) 3.8 05:37:41 14° WNW 05:52:15 71° SW 05:55:53 10° SE
USA 229 DEB 4.4 05:47:23 10° WSW 05:53:24 32° NW 05:59:31 10° NNE
USA 229 4.4 05:47:29 10° WSW 05:53:30 32° NW 05:59:37 10° NNE
Meteor 1-28 Rocket 3.4 05:50:35 10° S 05:54:16 51° W 05:58:00 10° NNW
Cosmos 839 Rocket 4.0 05:50:55 10° NNW 05:57:18 88° ENE 06:03:29 10° SSE
CZ-4 R/B 1.3 05:56:02 10° NNE 05:59:57 88° ESE 06:03:49 10° SSW
Cosmos 1892 Rocket 3.9 05:56:18 10° NNW 06:00:36 47° W 06:04:53 10° SSW
Cosmos 1340 3.2 05:58:06 10° NNW 06:01:37 37° W 06:05:07 10° SSW
SMAP 3.4 06:01:26 10° NNE 06:06:05 73° ESE 06:10:43 10° S
NOSS 3-1 (A) 3.3 06:02:01 10° SW 06:07:46 76° WNW 06:14:07 10° NNE
Meteor 1-12 Rocket 4.2 06:02:21 10° SSW 06:07:58 73° W 06:13:38 10° N
Cosmos 1626 Rocket 3.9 06:06:37 10° N 06:11:02 70° E 06:15:21 10° SSE
SL-8 Rocket 4.5 06:05:40 10° SW 06:11:23 37° WNW 06:17:05 10° NNW
Cosmos 405 Rocket 4.4 06:08:52 10° NNE 06:12:18 34° ENE 06:15:41 10° SE
CSL-04 Rocket 4.3 06:11:55 10° N 06:16:53 35° WNW 06:21:45 10° SW
Cosmos 1455 Rocket 3.8 06:15:22 10° SW 06:19:10 30° WNW 06:23:00 10° NNW
USA 215 3.8 06:14:06 10° NNE 06:19:55 36° NW 06:25:44 10° W
